Weather History for CWGB - May, 2013

Change the Weather History Date:

Tuesday, May 28, 2013

  Actual Average Record
Temperature  
Mean Temperature 52 °F -  
Max Temperature 53 °F - - ()
Min Temperature 52 °F - - ()
Degree Days  
Heating Degree Days 12    
Growing Degree Days 2 (Base 50)    
Moisture  
Dew Point 51 °F    
Average Humidity 92    
Maximum Humidity 95    
Minimum Humidity 84    
Precipitation  
Precipitation 0.04 in - - ()
Sea Level Pressure  
Sea Level Pressure 29.75 in    
Wind  
Wind Speed 16 mph ()    
Max Wind Speed 25 mph    
Max Gust Speed -    
T = Trace of Precipitation, MM = Missing Value Source: Averaged Metar Reports

Daily Weather History Graph

Daily Weather History Graph

Search for Another Location

Airport or City:

Trip Planner

Search our weather history database for the weather conditions in past years. The results will help you decide how hot, cold, wet, or windy it might be!

Date:

Astronomy

May. 28, 2013 Rise Set
Actual Time 5:18 AM PDT 9:10 PM PDT
Civil Twilight 4:37 AM PDT 9:51 PM PDT
Nautical Twilight 3:40 AM PDT 10:48 PM PDT
Astronomical Twilight 2:11 AM PDT 12:20 AM PDT
Moon No Moon Rise 9:23 AM PDT (5/28)
Length of Visible Light 17h 14m
Length of Day
15h 52m
Waning Gibbous, 82% of the Moon is Illuminated
May 28
Waning Gibbous
May 31
Last Quarter
Jun 8
New
Jun 16
First Quarter
Jun 23
Full

Hourly Weather History & Observations

Time (PDT) Temp. Dew Point Humidity Pressure Visibility Wind Dir Wind Speed Gust Speed Precip Events Conditions
12:00 AM 53.6 °F 52.0 °F 94% 29.69 in - ESE 16.1 mph - 0.01 in   Unknown
1:00 AM 53.2 °F 51.8 °F 95% 29.69 in - ESE 16.1 mph - 0.02 in   Unknown
2:00 AM 53.2 °F 51.8 °F 95% 29.70 in - ESE 13.8 mph - 0.01 in   Unknown
3:00 AM 53.1 °F 51.6 °F 95% 29.70 in - ESE 16.1 mph - N/A   Unknown
4:00 AM 53.2 °F 51.8 °F 95% 29.71 in - ESE 15.0 mph - N/A   Unknown
5:00 AM 53 °F 52 °F 94% 29.71 in - ESE 13.8 mph - -  
5:00 AM 53.2 °F 51.8 °F 95% 29.71 in - ESE 13.8 mph - N/A   Unknown
6:00 AM 53.4 °F 51.6 °F 94% 29.72 in - ESE 18.4 mph - N/A   Unknown
7:00 AM 53.1 °F 51.1 °F 93% 29.73 in - ESE 18.4 mph - N/A   Unknown
8:00 AM 53.1 °F 50.9 °F 92% 29.74 in - ESE 16.1 mph - N/A   Unknown
9:00 AM 52.9 °F 50.7 °F 92% 29.75 in - ESE 19.6 mph - 0.02 in   Unknown
10:00 AM 53.1 °F 50.9 °F 92% 29.76 in - ESE 19.6 mph - 0.01 in   Unknown
11:00 AM 53 °F 51 °F 89% 29.77 in - ESE 24.2 mph - -  
11:00 AM 52.7 °F 50.7 °F 93% 29.77 in - ESE 24.2 mph - 0.01 in   Unknown
12:00 PM 52.3 °F 50.7 °F 94% 29.79 in - ESE 25.3 mph - N/A   Unknown
1:00 PM 52.3 °F 50.2 °F 92% 29.79 in - ESE 24.2 mph - N/A   Unknown
2:00 PM 52.2 °F 50.4 °F 94% 29.80 in - ESE 24.2 mph - N/A   Unknown
3:00 PM 52.3 °F 50.4 °F 93% 29.81 in - ESE 25.3 mph - N/A   Unknown
4:00 PM 52.9 °F 50.9 °F 93% 29.81 in - ESE 23.0 mph - N/A   Unknown
5:00 PM 53.2 °F 50.9 °F 92% 29.80 in - ESE 21.9 mph - N/A   Unknown
6:00 PM 53.2 °F 50.4 °F 90% 29.78 in - ESE 21.9 mph - 0.01 in   Unknown
7:00 PM 53.8 °F 50.0 °F 87% 29.78 in - ESE 20.7 mph - N/A   Unknown
8:00 PM 52.7 °F 50.2 °F 91% 29.77 in - ESE 17.3 mph - N/A   Unknown
9:00 PM 52.3 °F 49.6 °F 91% 29.74 in - SE 12.7 mph - N/A   Unknown
10:00 PM 53.1 °F 49.8 °F 89% 29.76 in - SE 9.2 mph - N/A   Unknown
11:00 PM 53 °F 50 °F 84% 29.74 in - SE 8.1 mph - -  
11:00 PM 52.9 °F 49.6 °F 89% 29.74 in - SE 8.1 mph - N/A   Unknown